This is the latest recevied weather packets stored in our database for station/object KB4MLW-13. If no packets are shown the sender has not sent any weather packets the latest 10 day(s).
| Time | Temp. | Humidity | Pressure | Rain* | Wind** | Luminosity | Snow |
|---|---|---|---|---|---|---|---|
| 1788368518 | 34.44° C | 63% | 1002 hPa | 0 mm | - | - | - |
| 1788368458 | 34.44° C | 60% | 1001.9 hPa | 0 mm | - | - | - |
| 1788368398 | 34.44° C | 58% | 1002.1 hPa | 0 mm | - | - | - |
| 1788368308 | 33.89° C | 61% | 1001.8 hPa | 0 mm | - | - | - |
| 1788368248 | 33.89° C | 60% | 1002 hPa | 0 mm | - | - | - |
| 1788368158 | 33.89° C | 59% | 1002.1 hPa | 0 mm | - | - | - |
| 1788368098 | 33.89° C | 59% | 1002.1 hPa | 0 mm | - | - | - |
| 1788368038 | 33.89° C | 58% | 1002.1 hPa | 0 mm | - | - | - |
| 1788367978 | 33.89° C | 60% | 1002.1 hPa | 0 mm | - | - | - |
| 1788367918 | 33.89° C | 60% | 1002 hPa | 0 mm | - | - | - |
| 1788367858 | 33.89° C | 60% | 1002 hPa | 0 mm | - | - | - |
| 1788367798 | 33.89° C | 62% | 1002 hPa | 0 mm | - | - | - |
| 1788367738 | 33.89° C | 60% | 1002 hPa | 0 mm | - | - | - |
| 1788367649 | 34.44° C | 58% | 1002.1 hPa | 0 mm | - | - | - |
| 1788367558 | 34.44° C | 58% | 1002.2 hPa | 0 mm | - | - | - |
| 1788367498 | 34.44° C | 61% | 1002 hPa | 0 mm | - | - | - |
| 1788367410 | 34.44° C | 59% | 1002.2 hPa | 0 mm | - | - | - |
| 1788367318 | 34.44° C | 61% | 1002.1 hPa | 0 mm | - | - | - |
| 1788367258 | 34.44° C | 58% | 1002.3 hPa | 0 mm | - | - | - |
| 1788367198 | 34.44° C | 59% | 1002.4 hPa | 0 mm | - | - | - |
| 1788367109 | 34.44° C | 60% | 1002.2 hPa | 0 mm | - | - | - |
| 1788367048 | 34.44° C | 60% | 1002 hPa | 0 mm | - | - | - |
| 1788366988 | 34.44° C | 61% | 1002.3 hPa | 0 mm | - | - | - |
| 1788366899 | 34.44° C | 63% | 1002.4 hPa | 0 mm | - | - | - |
| 1788366838 | 34.44° C | 61% | 1002.1 hPa | 0 mm | - | - | - |
* Rain latest hour (hover to see other rain measurements)
** Current wind speed in m/s (hover to see current wind gust speed)